TimeHST,TemperatureF,Dew PointF,Humidity,Sea Level PressureIn,VisibilityMPH,Wind Direction,Wind SpeedMPH,Gust SpeedMPH,PrecipitationIn,Events,Conditions,WindDirDegrees,DateUTC
12:56 AM,75.0,63.0,66,29.97,10.0,ENE,4.6,-,N/A,,Scattered Clouds,70,2013-08-22 10:56:00
1:56 AM,75.0,62.1,64,29.95,10.0,ENE,4.6,-,N/A,,Clear,60,2013-08-22 11:56:00
2:56 AM,73.9,62.1,66,29.94,10.0,East,3.5,-,N/A,,Clear,80,2013-08-22 12:56:00
3:56 AM,73.0,62.1,68,29.94,10.0,ENE,5.8,-,N/A,,Clear,70,2013-08-22 13:56:00
4:56 AM,73.0,62.1,68,29.95,10.0,ENE,4.6,-,N/A,,Clear,70,2013-08-22 14:56:00
5:56 AM,72.0,62.1,71,29.94,10.0,ENE,3.5,-,N/A,,Clear,70,2013-08-22 15:56:00
6:56 AM,73.9,62.1,66,29.96,10.0,ENE,3.5,-,N/A,,Clear,70,2013-08-22 16:56:00
7:56 AM,81.0,64.0,56,29.97,10.0,Calm,Calm,-,N/A,,Clear,0,2013-08-22 17:56:00
8:56 AM,81.0,64.9,58,29.99,10.0,West,3.5,-,N/A,,Clear,270,2013-08-22 18:56:00
9:56 AM,82.0,68.0,62,29.99,10.0,SW,6.9,-,N/A,,Clear,220,2013-08-22 19:56:00
10:56 AM,82.9,68.0,60,29.98,10.0,West,4.6,-,N/A,,Clear,280,2013-08-22 20:56:00
11:56 AM,84.0,71.1,65,29.97,10.0,South,11.5,-,N/A,,Scattered Clouds,190,2013-08-22 21:56:00
12:56 PM,84.0,70.0,63,29.95,10.0,South,15.0,19.6,N/A,,Mostly Cloudy,170,2013-08-22 22:56:00
1:56 PM,84.0,71.1,65,29.94,10.0,South,11.5,-,N/A,,Partly Cloudy,190,2013-08-22 23:56:00
2:56 PM,84.0,70.0,63,29.93,10.0,South,10.4,-,N/A,,Partly Cloudy,180,2013-08-23 00:56:00
3:56 PM,82.9,70.0,65,29.92,10.0,SSW,9.2,-,N/A,,Clear,210,2013-08-23 01:56:00
4:56 PM,82.9,71.1,67,29.92,10.0,SW,6.9,-,N/A,,Scattered Clouds,230,2013-08-23 02:56:00
5:07 PM,82.4,71.6,70,29.92,10.0,SW,6.9,-,N/A,,Mostly Cloudy,220,2013-08-23 03:07:00
5:44 PM,82.4,71.6,70,29.92,10.0,SSW,6.9,-,N/A,,Mostly Cloudy,210,2013-08-23 03:44:00
5:56 PM,82.0,71.1,69,29.93,10.0,SSW,5.8,-,N/A,,Scattered Clouds,210,2013-08-23 03:56:00
6:56 PM,80.1,71.1,74,29.95,10.0,South,4.6,-,N/A,,Partly Cloudy,190,2013-08-23 04:56:00
7:56 PM,79.0,71.1,77,29.97,10.0,South,3.5,-,N/A,,Clear,190,2013-08-23 05:56:00
8:56 PM,79.0,70.0,74,29.99,10.0,Calm,Calm,-,N/A,,Overcast,0,2013-08-23 06:56:00
9:56 PM,77.0,69.1,76,30.01,10.0,East,4.6,-,N/A,,Clear,80,2013-08-23 07:56:00
10:56 PM,75.9,66.9,74,30.01,10.0,ENE,4.6,-,N/A,,Clear,70,2013-08-23 08:56:00
11:56 PM,75.0,68.0,79,30.00,10.0,ENE,3.5,-,N/A,,Clear,60,2013-08-23 09:56:00